Bismarck, ND

7:20 AM CDT on July 24, 2017 (GMT -0500)
Bismarck Municipal

Weather History for KBIS - July, 2013

Change the Weather History Date:

Saturday, July 13, 2013

  Actual Average Record
Temperature  
Mean Temperature 77 °F 71 °F  
Max Temperature 92 °F 85 °F 100 °F (2003)
Min Temperature 61 °F 57 °F 39 °F (1967)
Degree Days  
Heating Degree Days 0 1  
Month to date heating degree days 0 13  
Since 1 June heating degree days 86 106  
Since 1 July heating degree days 0 13  
Cooling Degree Days 12 7  
Month to date cooling degree days 96 74  
Year to date cooling degree days 192 174  
Since 1 June cooling degree days 180 157  
Growing Degree Days 26 (Base 50)    
Moisture  
Dew Point 62 °F    
Average Humidity 67    
Maximum Humidity 100    
Minimum Humidity 34    
Precipitation  
Precipitation T in 0.10 in 1.46 in (1949)
Month to date precipitation 0.39 1.30  
Year to date precipitation 13.70 9.94  
Snow  
Snow 0.00 in 0.00 in 0.00 in (2002)
Month to date snowfall 0.0 0.0  
Since 1 June snowfall 0.0 0.0  
Since 1 July snowfall 0.0 0.0  
Snow Depth 0.00 in    
Sea Level Pressure  
Sea Level Pressure 29.92 in    
Wind  
Wind Speed 8 mph (ESE)    
Max Wind Speed 26 mph    
Max Gust Speed 32 mph    
Visibility 10 miles    
Events Rain    
T = Trace of Precipitation, MM = Missing Value Source: NWS Daily Summary

Daily Weather History Graph

Daily Weather History Graph

Search for Another Location

Airport or City:

Trip Planner

Search our weather history database for the weather conditions in past years. The results will help you decide how hot, cold, wet, or windy it might be!

Date:

Astronomy

Jul. 13, 2013 Rise Set
Actual Time 6:02 AM CDT 9:34 PM CDT
Civil Twilight 5:24 AM CDT 10:12 PM CDT
Nautical Twilight 4:33 AM CDT 11:02 PM CDT
Astronomical Twilight 3:26 AM CDT 12:09 AM CDT
Moon 11:44 AM CDT (7/13) 11:50 PM CDT (7/13)
Length of Visible Light 16h 48m
Length of Day
15h 32m
Waxing Crescent, 26% of the Moon is Illuminated
Jul 13
Waxing Crescent
Jul 15
First Quarter
Jul 22
Full
Jul 29
Last Quarter
Aug 6
New

Hourly Weather History & Observations

Time (CDT) Temp. Heat Index Dew Point Humidity Pressure Visibility Wind Dir Wind Speed Gust Speed Precip Events Conditions
12:52 AM 68.0 °F - 63.0 °F 84% 29.90 in 10.0 mi East 5.8 mph - N/A   Clear
1:52 AM 66.9 °F - 64.0 °F 90% 29.91 in 10.0 mi Calm Calm - N/A   Clear
2:52 AM 66.9 °F - 63.0 °F 87% 29.91 in 10.0 mi NE 5.8 mph - N/A   Clear
3:52 AM 66.0 °F - 63.0 °F 90% 29.92 in 10.0 mi ENE 3.5 mph - N/A   Clear
4:52 AM 64.0 °F - 62.1 °F 93% 29.91 in 10.0 mi NE 8.1 mph - N/A   Clear
5:52 AM 63.0 °F - 62.1 °F 97% 29.94 in 10.0 mi East 3.5 mph - N/A   Clear
6:52 AM 64.9 °F - 62.1 °F 90% 29.95 in 10.0 mi Calm Calm - N/A   Clear
7:52 AM 66.9 °F - 64.0 °F 90% 29.95 in 9.0 mi NE 5.8 mph - N/A   Clear
8:52 AM 73.9 °F - 66.0 °F 76% 29.95 in 10.0 mi East 4.6 mph - N/A   Clear
9:52 AM 78.1 °F - 66.0 °F 66% 29.94 in 10.0 mi East 4.6 mph - N/A   Clear
10:52 AM 82.0 °F 83.8 °F 64.9 °F 56% 29.94 in 10.0 mi East 10.4 mph - N/A   Clear
11:52 AM 84.9 °F 85.9 °F 63.0 °F 48% 29.94 in 10.0 mi ESE 10.4 mph - N/A   Clear
12:52 PM 86.0 °F 86.8 °F 63.0 °F 46% 29.94 in 10.0 mi ESE 10.4 mph - N/A   Partly Cloudy
1:52 PM 88.0 °F 87.6 °F 60.1 °F 39% 29.93 in 10.0 mi SE 13.8 mph 18.4 mph N/A   Clear
2:52 PM 90.0 °F 90.0 °F 61.0 °F 38% 29.91 in 10.0 mi SE 13.8 mph - N/A   Clear
3:52 PM 91.0 °F 90.5 °F 60.1 °F 35% 29.91 in 10.0 mi South 13.8 mph 20.7 mph N/A   Clear
4:52 PM 91.0 °F 90.2 °F 59.0 °F 34% 29.90 in 10.0 mi SE 12.7 mph - N/A   Clear
5:52 PM 90.0 °F 90.0 °F 61.0 °F 38% 29.88 in 10.0 mi SSE 12.7 mph - N/A   Clear
6:52 PM 89.1 °F 88.2 °F 59.0 °F 36% 29.85 in 10.0 mi SSE 13.8 mph - N/A   Clear
7:52 PM 87.1 °F 87.5 °F 62.1 °F 43% 29.86 in 10.0 mi SSE 8.1 mph - N/A   Clear
8:52 PM 81.0 °F 82.5 °F 64.0 °F 56% 29.89 in 10.0 mi Calm Calm - N/A   Clear
9:52 PM 77.0 °F - 66.9 °F 71% 29.92 in 10.0 mi SSE 4.6 mph - N/A   Clear
10:52 PM 75.0 °F - 60.1 °F 60% 29.97 in 10.0 mi North 16.1 mph 21.9 mph N/A   Clear
11:52 PM 73.0 °F - 61.0 °F 66% 29.97 in 10.0 mi South 6.9 mph - 0.00 in Rain Light Rain